This is the latest recevied weather packets stored in our database for station/object KC1IUC-15. If no packets are shown the sender has not sent any weather packets the latest 10 day(s).
| Time | Temp. | Humidity | Pressure | Rain* | Wind** | Luminosity | Snow |
|---|---|---|---|---|---|---|---|
| 1778104803 | 15° C | 96% | 1006.2 hPa | 0 mm | - | 21 W/m² | - |
| 1778104504 | 15° C | 96% | 1006.2 hPa | 0 mm | - | 15 W/m² | - |
| 1778104204 | 15° C | 96% | 1005.8 hPa | 0 mm | - | 24 W/m² | - |
| 1778103903 | 15° C | 96% | 1006.2 hPa | 0 mm | - | 24 W/m² | - |
| 1778103604 | 15° C | 96% | 1005.8 hPa | 0 mm | - | 24 W/m² | - |
| 1778103303 | 15° C | 95% | 1005.8 hPa | 0 mm | - | 24 W/m² | - |
| 1778103004 | 15° C | 96% | 1005.8 hPa | 0 mm | - | 25 W/m² | - |
| 1778102704 | 15° C | 96% | 1005.8 hPa | 0 mm | - | 23 W/m² | - |
| 1778102403 | 15° C | 96% | 1005.8 hPa | 0 mm | - | 28 W/m² | - |
| 1778102103 | 15° C | 96% | 1005.8 hPa | 0 mm | - | 39 W/m² | - |
| 1778101804 | 15° C | 96% | 1005.8 hPa | 0 mm | - | 35 W/m² | - |
| 1778101504 | 15° C | 96% | 1005.8 hPa | 0.25 mm | - | 60 W/m² | - |
| 1778101204 | 15° C | 96% | 1005.8 hPa | 0.25 mm | - | 61 W/m² | - |
| 1778100904 | 15° C | 96% | 1006.2 hPa | 0.25 mm | - | 110 W/m² | - |
| 1778100604 | 15° C | 96% | 1006.2 hPa | 0.25 mm | - | 88 W/m² | - |
| 1778100304 | 15° C | 95% | 1006.5 hPa | 0.25 mm | - | 91 W/m² | - |
| 1778100003 | 15° C | 95% | 1006.2 hPa | 0.25 mm | - | 61 W/m² | - |
| 1778099704 | 15° C | 95% | 1006.5 hPa | 0.25 mm | - | 48 W/m² | - |
| 1778099403 | 15° C | 95% | 1006.5 hPa | 0.25 mm | - | 65 W/m² | - |
| 1778099104 | 15° C | 95% | 1006.2 hPa | 0.51 mm | - | 93 W/m² | - |
| 1778098803 | 15° C | 94% | 1006.5 hPa | 0.51 mm | - | 71 W/m² | - |
| 1778098504 | 15° C | 94% | 1006.9 hPa | 0.51 mm | - | 78 W/m² | - |
| 1778098204 | 15° C | 94% | 1006.5 hPa | 0.51 mm | - | 69 W/m² | - |
| 1778097903 | 15.56° C | 94% | 1006.2 hPa | 0.25 mm | - | 29 W/m² | - |
| 1778097604 | 15.56° C | 94% | 1006.2 hPa | 0.25 mm | - | 26 W/m² | - |
* Rain latest hour (hover to see other rain measurements)
** Current wind speed in m/s (hover to see current wind gust speed)